Theta_e
319 319 326 326 326 326 328 327 323 313 310 312 313 316 318 317 316 317 315 315 314 313 312 311 310 308 307 304 305 305 303 303 303 304 304 302 302 301
319 322 326 326 326 327 328 325 323 320 312 310 311 312 315 315 314 313 312 312 311 311 309 308 307 304 301 302 301 302 301 302 300 301 301 299 300 300
320 322 326 325 326 327 326 323 321 318 314 308 310 309 310 311 310 310 309 308 307 304 300 296 294 294 294 294 297 296 297 297 296 293 296 298 299 299
321 323 324 325 327 324 323 321 319 317 319 309 307 307 308 309 308 305 302 301 298 296 294 294 293 293 292 292 291 293 293 293 292 292 296 298 298 299
323 323 324 325 325 324 320 319 318 318 314 314 306 305 305 304 303 301 298 296 294 293 293 293 292 292 291 291 292 293 293 292 292 291 293 295 296 296
324 324 325 325 325 322 319 318 318 317 313 310 306 304 303 301 299 296 294 293 292 292 292 291 290 289 291 292 292 291 292 292 292 291 290 291 292 293
323 324 324 324 323 321 320 319 317 316 311 309 305 303 301 299 297 295 294 292 291 290 289 289 288 288 290 291 291 291 292 291 291 291 291 290 291 293
321 320 321 320 319 320 317 318 318 316 312 307 305 303 298 297 296 293 294 294 290 289 288 287 286 288 289 289 289 290 290 292 291 291 290 291 292 292
319 318 319 316 316 317 316 315 314 311 309 306 305 301 298 296 295 294 294 293 290 288 288 287 287 286 287 287 289 289 290 289 290 290 290 291 291 291
319 319 317 315 315 316 314 309 306 305 304 303 301 297 296 295 294 294 293 290 289 288 287 287 287 287 286 288 288 288 288 288 289 290 291 291 289 289
315 314 316 315 313 315 312 308 305 300 299 299 295 293 292 290 290 290 289 288 288 287 287 287 287 287 287 287 287 287 288 289 290 291 290 290 290 291
306 308 314 313 312 311 310 307 303 298 294 292 291 291 291 290 290 290 288 287 287 287 287 287 287 287 287 287 287 287 287 289 289 289 290 291 291 290
308 307 309 310 308 306 302 295 293 292 291 291 289 289 288 289 289 289 288 287 286 286 287 287 288 288 287 287 287 288 288 289 290 290 291 291 291 291
307 307 305 302 295 293 294 293 292 292 290 289 288 286 286 286 286 286 286 286 286 287 287 287 287 287 287 287 287 288 288 289 290 290 291 292 291 292
300 295 293 293 293 293 293 292 291 290 288 287 286 286 286 286 285 285 285 286 286 286 287 287 287 287 287 288 288 288 288 290 290 291 291 291 291 292
293 293 293 293 293 293 292 290 289 288 288 287 287 287 287 287 287 286 285 285 286 286 286 286 287 287 288 288 288 288 288 289 290 290 290 291 291 292
294 294 294 293 293 291 289 289 288 288 288 287 287 287 287 287 287 287 286 286 287 287 287 287 287 287 287 287 288 288 288 288 288 289 290 290 291 291
294 294 293 293 292 290 289 288 288 288 288 287 287 287 287 287 287 286 286 286 287 287 287 287 287 287 288 288 288 288 288 288 288 288 289 289 289 290
294 293 293 292 291 291 290 289 288 288 288 287 287 287 287 287 286 286 286 287 287 287 287 287 287 288 287 286 286 287 288 288 288 288 288 289 289 289
294 293 292 292 292 291 291 290 289 288 288 288 287 287 287 287 287 286 286 286 286 286 287 287 287 287 287 287 287 287 287 288 288 288 287 287 288 288
293 293 292 292 292 292 291 291 290 289 289 289 288 288 287 287 287 287 286 287 287 287 288 287 287 287 287 287 287 287 287 287 287 287 288 287 286 287
293 293 293 292 292 292 291 291 291 291 290 290 290 290 289 289 289 288 287 287 287 287 287 287 287 287 287 287 287 287 287 287 287 287 287 287 287 287
293 293 293 292 292 292 292 291 291 291 291 291 290 290 290 290 290 289 289 289 289 289 288 288 288 288 287 287 287 287 287 287 287 287 287 287 287 287
Wind_Speed
30 34 33 35 32 34 33 36 43 25 23 32 35 35 23 29 29 22 23 19 15 11 6 2 3 7 8 6 5 9 12 16 20 18 21 23 23 24
30 35 34 32 30 34 30 37 38 41 28 33 36 33 33 30 26 24 18 12 7 4 1 2 5 9 7 8 8 8 10 15 20 23 23 21 21 21
29 32 31 28 30 34 33 37 36 42 44 39 37 34 29 27 21 15 12 9 7 3 0 3 5 8 9 10 11 12 14 17 19 17 16 18 19 17
29 30 26 29 32 34 35 40 39 39 24 45 38 33 28 21 17 15 14 11 10 18 19 19 16 15 14 14 13 15 16 17 17 15 16 18 17 20
26 26 27 35 31 29 34 39 38 31 41 45 41 32 27 21 18 14 12 12 13 14 15 17 19 18 18 20 19 19 20 20 20 17 15 14 15 14
26 28 31 34 29 35 37 34 37 39 41 43 39 32 25 20 13 14 14 11 11 11 13 12 9 13 18 19 17 20 19 19 20 18 17 12 9 11
25 33 36 27 32 41 38 30 34 35 42 38 35 28 23 18 14 12 10 11 11 8 7 7 11 14 18 18 15 17 21 21 22 20 19 18 18 17
41 39 35 36 36 31 27 25 23 27 37 36 28 23 20 16 10 9 10 10 15 9 9 14 12 14 15 14 15 14 17 21 22 21 19 16 16 17
41 35 40 35 33 32 32 30 28 31 30 27 23 19 19 14 12 14 11 11 14 9 6 15 14 19 11 15 17 18 18 19 21 21 15 17 13 13
42 42 39 37 40 40 39 40 39 32 27 23 20 19 16 15 11 8 8 15 18 11 7 16 13 17 17 18 18 16 17 19 21 21 22 21 12 10
41 44 44 43 41 40 42 43 37 33 25 20 20 19 17 16 12 9 13 16 21 17 11 15 15 16 16 15 13 13 15 17 19 19 17 19 20 18
52 50 43 43 40 34 35 37 36 31 26 24 21 19 16 17 14 9 8 16 18 18 11 10 7 6 13 17 20 17 17 18 17 18 18 19 18 20
50 45 42 37 34 34 33 33 34 31 26 24 22 19 17 15 14 13 10 9 15 21 12 15 12 13 14 10 15 19 18 19 22 23 21 21 20 20
49 44 40 38 37 35 34 32 30 27 25 26 27 27 25 22 19 17 18 20 19 19 15 13 15 11 13 16 15 18 20 20 22 25 24 26 22 16
48 46 43 41 39 37 32 29 26 27 29 31 32 31 29 28 25 23 22 22 22 20 17 15 15 16 19 21 21 16 16 21 21 26 29 31 32 30
49 45 43 41 38 35 31 29 29 29 31 32 31 28 26 25 25 24 26 24 25 20 16 16 17 16 19 20 20 21 19 20 17 21 24 33 33 34
46 43 41 39 38 35 33 32 31 30 30 28 28 26 24 22 21 17 20 24 28 26 25 22 13 14 16 17 20 19 18 20 22 20 21 27 32 35
42 43 42 39 38 36 35 33 30 28 27 27 26 26 25 23 21 20 21 22 23 19 17 17 17 18 19 20 17 14 15 16 17 21 22 24 27 29
41 41 40 38 37 34 33 32 29 27 26 27 27 25 24 24 23 23 21 20 19 18 17 14 15 20 25 28 26 25 14 11 12 15 21 22 26 26
38 38 38 36 34 34 32 31 30 28 27 26 25 24 23 24 24 23 22 23 23 23 23 21 21 20 22 21 25 26 29 25 13 12 14 19 20 18
35 36 35 33 32 31 31 29 29 28 28 28 27 27 26 27 27 25 25 25 25 24 24 22 20 16 18 18 21 23 25 27 26 27 17 18 25 28
34 34 32 31 30 29 29 29 29 28 27 28 27 27 27 27 28 28 27 26 25 24 24 21 17 15 16 19 19 18 18 19 20 23 25 26 27 27
32 31 30 29 28 28 28 27 27 27 26 25 25 25 24 25 24 25 24 24 23 22 20 19 17 16 16 14 15 16 15 14 14 16 19 19 18 16
Wind_Direction
254 254 252 245 228 231 221 213 189 145 138 128 129 141 160 160 158 171 156 157 156 154 158 174 300 308 302 326 305 306 320 322 319 340 343 358 9 5
251 247 247 235 226 222 217 204 193 179 148 143 139 144 157 165 165 160 150 152 143 140 203 297 293 291 306 305 317 318 327 326 327 326 333 2 8 14
249 245 239 224 220 211 200 194 188 181 151 142 148 149 154 154 147 141 126 113 103 99 2 338 26 34 12 337 328 341 335 321 320 332 6 25 24 26
246 236 228 216 206 184 184 185 184 172 172 154 152 151 151 147 137 130 118 104 88 81 75 66 55 35 20 9 10 28 30 15 4 7 39 39 40 35
237 227 210 195 181 183 184 181 173 170 170 165 153 149 142 138 138 126 111 99 92 85 72 62 56 46 42 40 41 45 35 32 24 28 41 53 44 47
213 205 197 195 197 185 167 160 164 164 168 163 151 144 139 131 122 121 112 106 92 87 79 70 41 32 52 50 50 41 43 33 36 31 33 39 45 35
201 185 181 188 192 179 164 152 162 160 161 156 151 141 137 132 130 137 129 112 88 62 63 41 20 63 71 70 63 58 47 43 36 36 38 38 43 38
157 156 164 170 159 135 139 154 154 147 162 154 142 137 130 144 143 127 123 106 93 43 41 57 46 88 82 68 49 57 56 42 43 41 40 52 51 43
149 142 136 132 144 144 135 137 145 151 145 141 140 136 139 135 139 142 134 118 104 104 47 72 56 64 68 69 52 52 48 42 36 35 43 35 33 31
136 135 136 138 134 132 131 126 126 129 136 140 141 141 145 153 161 154 155 132 111 95 54 89 69 62 63 63 50 47 41 39 37 33 33 26 16 17
128 132 131 130 136 140 140 136 132 128 134 134 130 124 116 103 100 121 98 133 119 111 93 78 74 74 63 57 50 40 46 36 37 29 24 33 35 31
125 127 135 138 139 137 136 136 131 131 136 130 125 127 130 128 130 133 109 106 123 106 96 126 120 356 60 51 40 47 61 53 42 38 46 35 29 29
125 126 128 129 131 129 127 126 121 125 120 117 113 110 113 124 139 143 135 114 122 107 94 98 90 83 82 72 58 51 59 51 43 49 42 38 38 37
122 122 126 127 124 121 115 113 118 119 116 112 108 104 103 103 108 111 114 116 114 108 118 116 97 91 81 81 75 54 66 57 52 43 42 46 42 48
117 119 121 119 116 111 113 116 117 114 113 109 104 99 95 91 93 100 104 108 110 111 113 112 105 95 83 80 75 69 70 55 56 54 61 49 51 44
121 120 118 116 114 113 112 109 110 111 109 106 103 99 94 88 84 85 89 92 94 91 93 90 97 105 101 90 82 75 71 58 52 53 59 55 57 53
126 122 118 115 112 111 110 108 108 109 107 108 110 111 110 109 103 97 91 93 85 81 79 75 90 90 99 93 85 79 71 60 43 41 44 55 53 51
123 120 117 117 116 113 111 111 108 107 108 108 109 110 110 111 111 108 105 101 98 92 88 81 73 94 96 84 73 66 72 67 50 38 44 56 53 49
122 120 120 120 117 116 114 112 110 110 110 109 109 108 109 108 106 103 104 111 109 109 109 105 89 82 80 73 63 54 52 61 57 46 42 57 59 49
123 124 123 121 121 119 117 114 114 114 112 112 113 114 113 112 110 105 99 97 97 97 99 96 83 72 63 67 64 53 48 48 59 64 54 57 70 72
127 123 122 124 123 122 119 117 115 114 113 110 107 105 106 105 102 99 98 96 95 96 93 85 78 71 64 69 66 58 53 50 53 62 62 61 58 53
128 126 126 125 124 124 121 119 117 115 113 110 108 106 103 101 98 96 93 93 90 88 87 86 84 83 77 73 70 61 52 51 52 56 59 57 55 52
128 126 125 126 128 125 122 120 117 115 113 110 108 106 104 101 98 97 94 91 88 86 84 86 76 67 66 75 74 66 60 51 41 51 58 60 56 57